Regional Weather Roundup
Issued by NWS

Home | Current Version | Previous Version | Graphics & Text | Print | Product List | Glossary On
Versions: 1 2 3 4 5 6 7 8 9 10 11 12 13 14 15 16 17 18 19 20 21 22 23 24 25 26 27 28
000
ASUS45 KGTF 030610
RWRMT
MONTANA HOURLY WEATHER ROUNDUP
NATIONAL WEATHER SERVICE GREAT FALLS MT
1200 AM MDT SUN MAY 03 2015

NOTE: "FAIR" INDICATES FEW OR NO CLOUDS BELOW 12000 FEET WITH NO
SIGNIFICANT WEATHER AND/OR OBSTRUCTIONS TO VISIBILITY.

MTZ001>007-043-030700-
WEST OF THE DIVIDE

CITY           SKY/WX    TMP DP  RH WIND       PRES   REMARKS
KALISPELL      CLEAR     39  24  55 CALM      29.92R
MISSOULA       CLEAR     43  22  43 N5        29.93R
BUTTE          MOCLDY    46  17  31 CALM      29.95R
DEER LODGE       N/A     45  16  31 N7        29.97R
EUREKA           N/A     39  19  45 NE5       29.97R
LIBBY            N/A     41  27  56 SE3       29.96R
$$

MTZ008-052>055-030700-
SOUTHWEST MONTANA

CITY           SKY/WX    TMP DP  RH WIND       PRES   REMARKS
BOZEMAN        CLOUDY    54  18  24 NW6       29.89R
DILLON         MOCLDY    52  18  26 NE9       29.91R
$$

MTZ009-010-012-014-046-048-049-054-030700-
EAST SLOPES AND CENTRAL MONTANA

CITY           SKY/WX    TMP DP  RH WIND       PRES   REMARKS
CUT BANK       CLOUDY    42  30  62 CALM      30.01R
GREAT FALLS    CLOUDY    45  27  49 NE13      29.99R
MALMSTROM AFB  MOCLDY    44  29  56 NE8       29.99R
HELENA         PTCLDY    50  31  48 NW15      29.93R
$$

MTZ011-013-016-021-045-047-050-051-030700-
NORTH CENTRAL MONTANA

CITY           SKY/WX    TMP DP  RH WIND       PRES   REMARKS
HAVRE          CLOUDY    49  26  41 N7        29.98R
LEWISTOWN      CLOUDY    49  32  52 N12       29.96R
CHINOOK          N/A     46  30  53 CALM      29.98R
FORT BENTON      N/A     50  25  37 N7        30.00R
$$

MTZ017>020-022>042-056>058-061-062-030700-
EASTERN PLAINS

CITY           SKY/WX    TMP DP  RH WIND       PRES   REMARKS
BAKER          CLOUDY    58  35  42 N14       29.84R
BILLINGS       CLOUDY    57  37  47 NE13G24   29.88R
GLASGOW        MOCLDY    45  35  68 N7        29.91R
JORDAN           N/A     51  33  50 N10       29.91R
LIVINGSTON     CLOUDY    53  34  48 E17       29.91R
MILES CITY     LGT RAIN  58  36  43 NE24G33   29.85R
SIDNEY         CLOUDY    52  34  50 NW8       29.86R
WOLF POINT     MOCLDY    44  34  67 NW9       29.89R
BIG TIMBER       N/A     50  34  53 N7        29.95R
FORSYTH          N/A     57  36  44 NE14G20   29.88R
PLENTYWOOD       N/A     41  34  75 NW7       29.87R
POPLAR           N/A     46  36  66 NW6       29.89R
$$

REGIONAL REPORTS...DAKOTAS

CITY           SKY/WX    TMP DP  RH WIND       PRES   REMARKS
WILLISTON      MOCLDY    52  34  50 N10       29.84R
MINOT          PTCLDY    54  36  50 NW17      29.76R
DICKINSON      CLOUDY    56  35  45 NE14      29.78R
BEACH          FAIR      54  36  50 N17G24    29.86R
CROSBY         FAIR      39  36  87 W8        29.84R
WATFORD CITY   FAIR      52  36  54 N9        29.82R
BISMARCK       MOCLDY    58  35  42 NW3       29.73R
GRAND FORKS    CLEAR     47  43  86 W6        29.60R
FARGO          PTCLDY    58  50  75 S12       29.62R
BUFFALO SD       N/A     60  30  32 N20       29.71R
RAPID CITY     MOCLDY    52  32  46 NW7       29.76R
$$

REGIONAL REPORTS...WYOMING/IDAHO/WASHINGTON

CITY           SKY/WX    TMP DP  RH WIND       PRES   REMARKS
GILLETTE       PTCLDY    45  33  63 SW5       29.82R
SHERIDAN       MOCLDY    53  36  52 W9        29.85R
BUFFALO WY     MOCLDY    58  28  32 NW12      29.87S
CODY           MOCLDY    57  27  30 N6        29.89F
YELLOWSTONE LA   N/A     39  29  67 NW3       30.00R
IDAHO FALLS    CLEAR     57  34  41 SW10      29.86R
SALMON         PTCLDY    55  27  33 N8        29.88R
BOISE          CLEAR     58  29  33 CALM      29.81R
SPOKANE        CLEAR     52  27  38 CALM      29.93R
$$

REGIONAL REPORTS...ALBERTA

CITY           SKY/WX    TMP DP  RH WIND       PRES   REMARKS
EDMONTON       CLEAR     34  32  93 W6        29.96S WCI  29
CALGARY        PTCLDY    34  19  55 N5        30.00R
LETHBRIDGE     PTCLDY    34  30  86 SW5       30.00R
MEDICINE HAT   PTCLDY    36  28  75 SW3       29.99R
$$

REGIONAL REPORTS...SASKATCHEWAN

CITY           SKY/WX    TMP DP  RH WIND       PRES   REMARKS
SWIFT CURRENT  CLEAR     37  27  65 NW5       29.91R
REGINA         CLEAR     41  34  75 NW15      29.84R
SASKATOON      PTCLDY    41  34  75 W10       29.84R
$$



USA.gov is the U.S. government's official web portal to all federal, state and local government web resources and services.